Location: Unspecified
(0.0000°N, 0.0000°E)
Time: 01:59:13
(UTC+00:00)

Vanguard 1 - Pass Details

Date: 08 December 2017
Orbit: 649 x 3834 km, 34.3° (Epoch: 16 January)

Event Time Altitude Azimuth Distance (km) Brightness Sun altitude
Rises 06:30:27 0° 230° (SW) 7,227 14.2 8.9°
Reaches altitude 10° 06:34:53 10° 228° (SW) 6,472 14.0 9.9°
Maximum altitude 06:58:07 79° 142° (SE) 3,828 13.5 15.2°
Drops below altitude 10° 07:18:27 10° 57° (ENE) 5,823 14.5 19.9°
Sets 07:22:09 0° 56° (ENE) 6,514 14.7 20.7°
